TimeEST,TemperatureF,Dew PointF,Humidity,Sea Level PressureIn,VisibilityMPH,Wind Direction,Wind SpeedMPH,Gust SpeedMPH,PrecipitationIn,Events,Conditions,WindDirDegrees,DateUTC
12:52 AM,39.9,34.0,79,30.27,10.0,WNW,4.6,-,0.02,Rain,Light Rain,300,2013-01-15 05:52:00
1:52 AM,39.0,36.0,89,30.27,6.0,Calm,Calm,-,0.04,Rain,Light Rain,0,2013-01-15 06:52:00
2:52 AM,37.9,34.0,86,30.23,10.0,ESE,3.5,-,0.03,Rain,Light Rain,110,2013-01-15 07:52:00
3:52 AM,37.9,35.1,89,30.22,10.0,SE,5.8,-,0.01,,Overcast,140,2013-01-15 08:52:00
4:52 AM,37.9,35.1,89,30.22,9.0,Calm,Calm,-,N/A,,Overcast,0,2013-01-15 09:52:00
5:52 AM,37.9,35.1,89,30.23,6.0,NW,3.5,-,0.00,,Overcast,320,2013-01-15 10:52:00
6:52 AM,37.0,34.0,89,30.25,5.0,Calm,Calm,-,N/A,,Mostly Cloudy,0,2013-01-15 11:52:00
7:52 AM,37.0,33.1,86,30.29,10.0,NW,3.5,-,N/A,,Overcast,310,2013-01-15 12:52:00
8:26 AM,37.0,32.0,82,30.29,10.0,WNW,3.5,-,N/A,,Overcast,300,2013-01-15 13:26:00
8:38 AM,37.0,30.9,79,30.29,10.0,Calm,Calm,-,N/A,,Overcast,0,2013-01-15 13:38:00
8:52 AM,37.0,30.9,79,30.30,10.0,WNW,3.5,-,N/A,,Overcast,300,2013-01-15 13:52:00
9:52 AM,39.9,30.0,68,30.30,10.0,Variable,4.6,-,N/A,,Overcast,0,2013-01-15 14:52:00
10:52 AM,41.0,28.9,62,30.30,10.0,Variable,4.6,-,N/A,,Overcast,0,2013-01-15 15:52:00
11:52 AM,42.1,27.0,55,30.27,10.0,NNW,3.5,-,N/A,,Mostly Cloudy,340,2013-01-15 16:52:00
12:52 PM,43.0,27.0,53,30.26,10.0,Calm,Calm,-,N/A,,Scattered Clouds,0,2013-01-15 17:52:00
1:52 PM,43.0,28.0,56,30.26,10.0,NW,3.5,-,N/A,,Partly Cloudy,310,2013-01-15 18:52:00
2:52 PM,43.0,28.0,56,30.25,10.0,Calm,Calm,-,N/A,,Partly Cloudy,0,2013-01-15 19:52:00
3:52 PM,42.1,27.0,55,30.25,10.0,Calm,Calm,-,N/A,,Clear,0,2013-01-15 20:52:00
4:52 PM,37.9,30.0,73,30.26,10.0,Calm,Calm,-,N/A,,Scattered Clouds,0,2013-01-15 21:52:00
5:52 PM,37.0,30.9,79,30.27,10.0,Calm,Calm,-,N/A,,Overcast,0,2013-01-15 22:52:00
6:52 PM,35.1,30.0,82,30.26,10.0,Calm,Calm,-,N/A,,Scattered Clouds,0,2013-01-15 23:52:00
7:52 PM,35.1,30.0,82,30.26,10.0,Calm,Calm,-,N/A,,Overcast,0,2013-01-16 00:52:00
8:52 PM,36.0,30.0,79,30.25,10.0,Calm,Calm,-,N/A,,Overcast,0,2013-01-16 01:52:00
9:52 PM,36.0,30.0,79,30.25,10.0,Calm,Calm,-,N/A,,Overcast,0,2013-01-16 02:52:00
10:52 PM,37.0,26.1,65,30.24,10.0,Calm,Calm,-,N/A,,Overcast,0,2013-01-16 03:52:00
11:52 PM,37.0,26.1,65,30.22,10.0,Calm,Calm,-,N/A,,Overcast,0,2013-01-16 04:52:00